User: anonymous   Login
Location: Cannifist
(18.2333°N, 63.0167°W)
Time: 06:05:15
(UTC+00:00)
Language:

Cosmos 1656 - Orbit

View from above orbital plane
View from above orbital plane
View from above satellite
View from above satellite

Ground track
Ground track

The orbit data is extracted from the following two-line orbital elements,

1 15755U 85042A   20152.42023721 -.00000126 +00000-0 -36401-4 0  9992
2 15755 071.1124 249.3740 0035341 178.4210 181.7035 14.20450462813677
Epoch (UTC): 31 May 2020 10:05:08
Eccentricity: 0.0035341
inclination: 71.1124°
perigee height: 798 km
apogee height: 849 km
right ascension of ascending node: 249.3740°
argument of perigee: 178.4210°
revolutions per day: 14.20450462
mean anomaly at epoch: 181.7035°
orbit number at epoch: 81367

The dashed part of the orbit path shows where the satellite is in the earth's shadow,  

DLR